"Pseudo-MPEC" for P12patX

Created 2026 Aug 12 23:35:19 UT using Find_Orb

Click here for an explanation of pseudo-MPECs

 
 Astrometry: 
     P12patX*0C2026 08 11.44396321 56 13.718-25 16 43.98   ~8BC5 19.80wXNEOCPF51
     P12patX 0C2026 08 11.45444821 56 05.614-25 15 09.36   ~8BC5 20.12wXNEOCPF51
     P12patX 0C2026 08 11.46492021 55 57.521-25 13 34.43   ~8BC5 20.09wXNEOCPF51
     P12patX 0C2026 08 11.51675021 55 17.839-25 05 43.84   ~8BKK 19.55GVNEOCPF52
     P12patX 0C2026 08 11.51750421 55 17.245-25 05 36.35   ~8BKK 19.26GVNEOCPF52
     P12patX KB2026 08 11.99670021 49 58.45 -23 56 01.1    ~8C0Z 19.9 GVNEOCPL01
     P12patX KB2026 08 12.00172821 49 54.96 -23 55 18.3    ~8C0Z 19.7 GVNEOCPL01

Station data:
(F51) Pan-STARRS 1, Haleakala  (N20.707234 W156.255910)  US/Hawaii.
   Observers J. Herman, T. Lowe, P. Minguez, A. Schultz, I. Smith. Measurers
   K. Chambers, T. de Boer, J. Fairlamb, H. Gao, M. Huber, C.-C. Lin, E.
   Magnier, Y. Ramanjooloo, R. Wainscoat, R. Weryk. 1.8-m Ritchey-Chrétien +
   CCD.
(F52) Pan-STARRS 2, Haleakala  (N20.707382 W156.255910)  US/Hawaii.
   Observers J. Herman, T. Lowe, P. Minguez, A. Schultz, I. Smith. Measurers
   K. Chambers, T. de Boer, J. Fairlamb, H. Gao, M. Huber, C.-C. Lin, E.
   Magnier, Y. Ramanjooloo, R. Wainscoat, R. Weryk. 1.8-m Ritchey-Chrétien +
   CCD.
(L01) Višnjan Observatory, Tičan  (N45.290897 E13.749300)  Croatia.
   Observers K. Korlević, L. Poropat. Measurer K. Korlevic. 1.0-m f/2.9
   reflector + CCD.

Orbital elements:  P12patX
   Perihelion 2026 May 12.824807 +/- 0.709 TT = 19:47:43.3 (JD 2461173.324807)
Epoch 2026 Aug 12.0 TT = JDT 2461264.5   Earth MOID: 0.0382      AutoNEOCP
M  86.019704996 +/- 0.9             (J2000 ecliptic)
n   0.943455143 +/- 0.00338         Peri.  243.495724 +/- 0.38
a   1.029568417 +/- 0.00246         Node   322.491137 +/- 0.014
e   0.24059690 +/- 0.00451          Incl.    9.190727 +/- 0.048
P   1.045/381.569d         H 25.25  G  0.15   U  8.9
q 0.781857441 +/- 0.00277    Q 1.277279392 +/- 0.00769
From 7 observations 2026 Aug. 11-12 (13.4 hr); mean residual 0".19
Residuals in arcseconds: 
260811 F51  .09+  .08-    260811 F52  .16+  .33-    260812 L01  .06+  .27-    
260811 F51  .03+  .06-    260811 F52  .12-  .27+    
260811 F51  .17-  .21+    260811 L01  .06-  .29+    

Ephemerides (geocentric):
Date (UTC) HH   RA             Dec           delta  r     elong  mag " sig PA
---- --------  ------------   ------------  ------ ------ -----  --- --------
2026 08 13 00  21 39 56.653   -21 36 56.72  .06200 1.0748 172.8 19.9 14.2 140
2026 08 13 01  21 39 33.531   -21 31 33.43  .06215 1.0749 172.9 19.9 15.1 140
2026 08 13 02  21 39 10.551   -21 26 11.49  .06231 1.0751 173.0 19.9 16.0 140
2026 08 13 03  21 38 47.712   -21 20 50.92  .06246 1.0753 173.1 19.9 16.9 140
2026 08 13 04  21 38 25.012   -21 15 31.71  .06262 1.0754 173.2 19.9 17.8 140
2026 08 13 05  21 38 02.450   -21 10 13.85  .06277 1.0756 173.3 19.9 18.8 140
2026 08 13 06  21 37 40.026   -21 04 57.34  .06293 1.0757 173.4 19.9 19.7 139
2026 08 13 07  21 37 17.738   -20 59 42.17  .06308 1.0759 173.5 19.9 20.7 139
2026 08 13 08  21 36 55.585   -20 54 28.35  .06324 1.0761 173.6 19.9 21.7 139
2026 08 13 09  21 36 33.566   -20 49 15.86  .06339 1.0762 173.7 19.9 22.7 139
2026 08 13 10  21 36 11.680   -20 44 04.71  .06355 1.0764 173.8 19.9 23.8 139
2026 08 13 11  21 35 49.927   -20 38 54.89  .06371 1.0765 173.9 19.9 24.8 139
2026 08 13 12  21 35 28.305   -20 33 46.39  .06387 1.0767 174.0 19.9 25.9 139
2026 08 13 13  21 35 06.813   -20 28 39.22  .06402 1.0769 174.1 19.9 27.0 139
2026 08 13 14  21 34 45.450   -20 23 33.37  .06418 1.0770 174.2 19.9 28.1 139
2026 08 13 15  21 34 24.216   -20 18 28.83  .06434 1.0772 174.3 19.9 29.2 139
2026 08 13 16  21 34 03.109   -20 13 25.59  .06450 1.0773 174.4 19.9 30.4 139
2026 08 13 17  21 33 42.128   -20 08 23.67  .06466 1.0775 174.5 19.9 31.5 139
2026 08 13 18  21 33 21.272   -20 03 23.04  .06482 1.0777 174.5 19.9 32.7 139
2026 08 13 19  21 33 00.541   -19 58 23.72  .06498 1.0778 174.6 19.9 33.9 138
2026 08 13 20  21 32 39.934   -19 53 25.68  .06514 1.0780 174.7 19.9 35.1 138
2026 08 13 21  21 32 19.449   -19 48 28.93  .06530 1.0781 174.8 19.9 36.3 138
2026 08 13 22  21 31 59.085   -19 43 33.47  .06546 1.0783 174.8 19.9 37.6 138
2026 08 13 23  21 31 38.843   -19 38 39.29  .06562 1.0785 174.9 19.9 38.8 138
2026 08 14 00  21 31 18.720   -19 33 46.38  .06578 1.0786 175.0 19.9 40.1 138
2026 08 14 01  21 30 58.716   -19 28 54.74  .06594 1.0788 175.0 19.9 41.3 138
2026 08 14 02  21 30 38.831   -19 24 04.37  .06610 1.0789 175.1 19.9 42.6 138
2026 08 14 03  21 30 19.063   -19 19 15.25  .06626 1.0791 175.1 19.9 43.9 138
2026 08 14 04  21 29 59.411   -19 14 27.40  .06643 1.0792 175.2 19.9 45.2 138
2026 08 14 05  21 29 39.874   -19 09 40.80  .06659 1.0794 175.2 19.9 46.6 138
2026 08 14 06  21 29 20.453   -19 04 55.44  .06675 1.0796 175.2 19.9 47.9 138
2026 08 14 07  21 29 01.145   -19 00 11.33  .06692 1.0797 175.3 19.9 49.2 138
2026 08 14 08  21 28 41.950   -18 55 28.46  .06708 1.0799 175.3 19.9 50.6 138
2026 08 14 09  21 28 22.867   -18 50 46.82  .06724 1.0800 175.3 19.9 52.0 138
2026 08 14 10  21 28 03.895   -18 46 06.41  .06741 1.0802 175.4 19.9 53.3 138
2026 08 14 11  21 27 45.034   -18 41 27.22  .06757 1.0804 175.4 20.0 54.7 138
2026 08 14 12  21 27 26.283   -18 36 49.25  .06774 1.0805 175.4 20.0 56.1 138
2026 08 14 13  21 27 07.641   -18 32 12.50  .06790 1.0807 175.4 20.0 57.6 138
2026 08 14 14  21 26 49.107   -18 27 36.96  .06807 1.0808 175.4 20.0 59.0 138
2026 08 14 15  21 26 30.680   -18 23 02.62  .06823 1.0810 175.4 20.0 60.4 138
2026 08 14 16  21 26 12.360   -18 18 29.49  .06840 1.0811 175.4 20.0 61.9 138
2026 08 14 17  21 25 54.145   -18 13 57.55  .06857 1.0813 175.4 20.0 63.3 138
2026 08 14 18  21 25 36.036   -18 09 26.80  .06873 1.0815 175.4 20.0 64.8 138
2026 08 14 19  21 25 18.031   -18 04 57.24  .06890 1.0816 175.4 20.0 66.2 138
2026 08 14 20  21 25 00.129   -18 00 28.86  .06907 1.0818 175.4 20.0 67.7 138
2026 08 14 21  21 24 42.330   -17 56 01.65  .06924 1.0819 175.4 20.0 69.2 138
2026 08 14 22  21 24 24.634   -17 51 35.62  .06940 1.0821 175.4 20.0 70.7 138
2026 08 14 23  21 24 07.038   -17 47 10.76  .06957 1.0823 175.3 20.0 72.2 138